KAITUO 1B
1 40912U 15049P   19147.44970593  .00000617  00000-0  32204-4 0  9997
2 40912  97.4497 155.0942 0013359 249.1600 215.0645 15.19550252203932
TIANWANG 1C (TW-1C)
1 40926U 15051B   19147.52379057  .00007682  00000-0  11464-3 0  9995
2 40926  97.1369 193.7302 0010384  95.4379  10.5900 15.55279840206713
TIANWANG 1B (TW-1B)
1 40927U 15051C   19147.38636752  .00007295  00000-0  11524-3 0  9995
2 40927  97.1397 193.0049 0010485 104.6911 310.9957 15.53725747206554
TIANWANG 1A (TW-1A)
1 40928U 15051D   19147.55243236  .00002039  00000-0  51936-4 0  9999
2 40928  97.1471 179.3476 0012104 145.6100   7.7638 15.40640794205767
LAPAN A2
1 40931U 15052B   19146.65454864  .00000247  00000-0 -55435-4 0  9993
2 40931   5.9955 221.1188 0019514 195.4567 164.5167 14.76601457197853
LQSAT
1 40958U 15057A   19146.80858163 -.00000104  00000-0 -85023-5 0  9994
2 40958  97.8988 216.6208 0017170 318.2489  41.7371 14.73078133195435
CHUBUSAT 2
1 41338U 16012B   19147.53448742  .00000249  00000-0  12601-4 0  9997
2 41338  31.0034 285.5814 0013929 244.1779 115.7419 15.00144489179587
CHUBUSAT 3
1 41339U 16012C   19147.50657289  .00000249  00000-0  12544-4 0  9999
2 41339  31.0106 283.8789 0013607 251.7165 108.1980 15.00320766179578
OUFTI-1
1 41458U 16025C   19147.46068928  .00001480  00000-0  78599-4 0  9996
2 41458  98.1008 233.1751 0167984  72.0588 289.8870 15.05755591169233
E-STAR-2
1 41459U 16025D   19147.47186770  .00000552  00000-0  32261-4 0  9999
2 41459  98.1001 232.8638 0169432  73.2951 288.6788 15.05399920169206
AAUSAT 4
1 41460U 16025E   19147.47508177  .00001139  00000-0  60731-4 0  9995
2 41460  98.0940 234.0495 0159166  66.2044 295.5773 15.07260730169324
NUSAT 1
1 41557U 16033B   19147.50450530  .00000913  00000-0  36980-4 0  9992
2 41557  97.4173 235.1342 0014358  23.2918 336.8969 15.27158240166700
BEESAT 4
1 41619U 16040W   19146.84921519 +.00000834 +00000-0 +38308-4 0  9993
2 41619 097.3689 209.4970 0013143 102.7285 257.5421 15.23062559150384
PRATHAM
1 41783U 16059A   19146.82433233  .00000016  00000-0  12252-4 0  9996
2 41783  98.0690 206.9089 0035000  95.9621 264.5572 14.62991895142205
ALSAT 1N
1 41789U 16059G   19147.37916761  .00000065  00000-0  21214-4 0  9997
2 41789  98.0709 209.3959 0029728  84.0351 276.4238 14.64240214142388
NAYIF 1
1 42017U 17008BX  19146.73928543 +.00000878 +00000-0 +37545-4 0  9993
2 42017 097.4042 214.0686 0004684 242.0334 118.0431 15.25458740126423
MAX VALIER SAT
1 42778U 17036P   19146.78064365  .00000534  00000-0  26407-4 0  9990
2 42778  97.3560 204.9497 0010909 310.1946  49.8334 15.21970769106755
